QPF
0.07 0.08 0.11 0.14 0.11 0.09 0.11 0.11 0.08 0.08 0.06 0.05 0.04 0.03 0.03 0.04 0.06 0.06 0.07 0.09 0.10 0.09 0.09 0.06 0.06 0.06 0.06 0.05 0.04 0.04 0.03 0.05 0.06 0.05 0.04 0.04 0.05 0.06 0.06 0.08 0.11 0.09 0.04
0.07 0.08 0.10 0.14 0.12 0.12 0.11 0.07 0.06 0.07 0.07 0.06 0.08 0.07 0.05 0.06 0.05 0.04 0.04 0.06 0.07 0.07 0.08 0.07 0.06 0.06 0.06 0.05 0.04 0.04 0.03 0.04 0.05 0.05 0.05 0.04 0.04 0.06 0.06 0.07 0.07 0.05 0.04
0.06 0.07 0.09 0.10 0.10 0.10 0.10 0.09 0.08 0.08 0.08 0.07 0.08 0.08 0.07 0.07 0.05 0.05 0.06 0.06 0.04 0.04 0.06 0.06 0.06 0.05 0.06 0.07 0.06 0.05 0.05 0.04 0.05 0.06 0.05 0.04 0.04 0.05 0.04 0.05 0.05 0.04 0.03
0.05 0.06 0.07 0.09 0.11 0.11 0.10 0.12 0.11 0.09 0.08 0.07 0.05 0.05 0.06 0.07 0.08 0.09 0.11 0.08 0.05 0.03 0.04 0.06 0.07 0.06 0.06 0.06 0.07 0.07 0.07 0.06 0.05 0.06 0.05 0.04 0.04 0.04 0.04 0.04 0.05 0.05 0.05
0.04 0.06 0.07 0.09 0.10 0.11 0.11 0.10 0.08 0.08 0.07 0.07 0.05 0.05 0.07 0.07 0.08 0.08 0.09 0.10 0.09 0.06 0.03 0.04 0.06 0.08 0.09 0.10 0.09 0.08 0.08 0.07 0.07 0.07 0.08 0.06 0.05 0.06 0.05 0.05 0.05 0.05 0.04
0.07 0.07 0.08 0.08 0.09 0.09 0.08 0.07 0.07 0.07 0.05 0.06 0.07 0.07 0.09 0.09 0.06 0.05 0.05 0.06 0.08 0.09 0.07 0.04 0.03 0.05 0.09 0.09 0.10 0.09 0.10 0.08 0.07 0.06 0.07 0.08 0.09 0.08 0.07 0.07 0.06 0.04 0.04
0.07 0.07 0.08 0.07 0.06 0.06 0.06 0.05 0.05 0.03 0.05 0.05 0.06 0.07 0.08 0.08 0.06 0.04 0.04 0.03 0.04 0.05 0.07 0.06 0.04 0.03 0.04 0.05 0.06 0.06 0.07 0.08 0.08 0.08 0.08 0.08 0.10 0.11 0.11 0.11 0.08 0.05 0.04
0.05 0.04 0.05 0.04 0.03 0.02 0.04 0.04 0.04 0.03 0.04 0.05 0.05 0.06 0.07 0.09 0.07 0.04 0.03 0.02 0.03 0.04 0.05 0.07 0.06 0.04 0.04 0.05 0.06 0.06 0.07 0.08 0.08 0.09 0.10 0.11 0.14 0.18 0.16 0.12 0.07 0.05 0.04
0.04 0.04 0.05 0.04 0.03 0.02 0.02 0.04 0.06 0.05 0.05 0.05 0.06 0.07 0.06 0.06 0.05 0.03 0.02 0.02 0.03 0.04 0.05 0.06 0.07 0.06 0.05 0.04 0.04 0.05 0.05 0.06 0.07 0.08 0.10 0.11 0.12 0.10 0.07 0.05 0.04 0.04 0.03
0.03 0.04 0.06 0.06 0.05 0.05 0.04 0.04 0.06 0.07 0.05 0.06 0.08 0.08 0.07 0.06 0.04 0.04 0.03 0.02 0.02 0.02 0.05 0.06 0.06 0.05 0.04 0.04 0.03 0.03 0.04 0.04 0.06 0.08 0.09 0.09 0.08 0.07 0.06 0.05 0.05 0.06 0.06
0.04 0.05 0.05 0.06 0.04 0.04 0.05 0.04 0.05 0.06 0.08 0.10 0.10 0.11 0.11 0.08 0.07 0.05 0.04 0.03 0.02 0.02 0.04 0.04 0.04 0.03 0.02 0.04 0.04 0.05 0.05 0.05 0.06 0.08 0.09 0.10 0.10 0.08 0.06 0.05 0.05 0.06 0.06
0.03 0.03 0.04 0.06 0.06 0.06 0.07 0.08 0.07 0.06 0.07 0.07 0.06 0.07 0.09 0.11 0.09 0.06 0.03 0.02 0.03 0.02 0.02 0.02 0.02 0.02 0.03 0.03 0.04 0.05 0.05 0.06 0.06 0.06 0.06 0.08 0.11 0.12 0.07 0.04 0.04 0.05 0.06
0.02 0.02 0.02 0.04 0.06 0.06 0.06 0.09 0.11 0.09 0.07 0.06 0.05 0.05 0.08 0.08 0.08 0.06 0.04 0.03 0.03 0.03 0.04 0.05 0.05 0.04 0.03 0.04 0.04 0.05 0.04 0.05 0.06 0.05 0.05 0.05 0.08 0.10 0.08 0.05 0.05 0.05 0.05
0.01 0.01 0.01 0.02 0.05 0.08 0.10 0.10 0.11 0.12 0.13 0.12 0.09 0.07 0.08 0.07 0.07 0.07 0.06 0.06 0.04 0.04 0.05 0.05 0.05 0.04 0.03 0.04 0.05 0.04 0.03 0.04 0.04 0.04 0.04 0.04 0.04 0.06 0.08 0.06 0.05 0.06 0.06
0.01 0.01 0.02 0.02 0.03 0.06 0.10 0.13 0.12 0.13 0.15 0.16 0.16 0.14 0.11 0.08 0.07 0.06 0.05 0.05 0.06 0.05 0.05 0.04 0.04 0.03 0.03 0.03 0.03 0.03 0.04 0.05 0.04 0.04 0.04 0.04 0.03 0.04 0.05 0.05 0.05 0.05 0.04
0.02 0.02 0.03 0.03 0.03 0.04 0.06 0.10 0.11 0.11 0.12 0.15 0.18 0.17 0.13 0.10 0.07 0.06 0.06 0.05 0.06 0.06 0.04 0.03 0.02 0.03 0.03 0.03 0.02 0.03 0.03 0.05 0.06 0.05 0.04 0.04 0.05 0.04 0.04 0.03 0.04 0.04 0.04
0.04 0.02 0.02 0.03 0.03 0.05 0.05 0.06 0.06 0.10 0.09 0.08 0.10 0.10 0.09 0.09 0.07 0.06 0.06 0.06 0.06 0.05 0.04 0.04 0.04 0.03 0.03 0.02 0.02 0.02 0.02 0.02 0.03 0.03 0.03 0.04 0.04 0.05 0.05 0.05 0.04 0.05 0.05
0.03 0.02 0.02 0.02 0.02 0.04 0.07 0.07 0.08 0.09 0.08 0.05 0.05 0.06 0.07 0.08 0.07 0.07 0.07 0.06 0.04 0.04 0.04 0.04 0.04 0.03 0.02 0.02 0.01 0.01 0.01 0.01 0.01 0.01 0.02 0.03 0.03 0.04 0.04 0.05 0.06 0.07 0.05
0.03 0.02 0.03 0.03 0.04 0.05 0.06 0.05 0.06 0.08 0.06 0.04 0.04 0.04 0.05 0.07 0.07 0.08 0.07 0.06 0.05 0.05 0.04 0.04 0.03 0.02 0.02 0.01 0.01 0.01 0.01 0.01 0.00 0.01 0.02 0.02 0.02 0.02 0.02 0.03 0.05 0.07 0.06
0.02 0.03 0.05 0.05 0.05 0.05 0.04 0.04 0.04 0.03 0.03 0.03 0.03 0.03 0.03 0.05 0.05 0.06 0.05 0.05 0.04 0.04 0.04 0.03 0.03 0.02 0.02 0.01 0.01 0.01 0.01 0.00 0.01 0.00 0.01 0.01 0.02 0.02 0.02 0.02 0.03 0.04 0.04
0.05 0.05 0.06 0.06 0.06 0.04 0.04 0.03 0.03 0.02 0.02 0.02 0.03 0.03 0.03 0.04 0.05 0.04 0.03 0.03 0.03 0.03 0.02 0.02 0.02 0.02 0.01 0.01 0.01 0.01 0.01 0.01 0.00 0.00 0.00 0.01 0.02 0.02 0.03 0.02 0.02 0.02 0.02
0.03 0.04 0.04 0.04 0.04 0.03 0.03 0.04 0.04 0.03 0.02 0.02 0.02 0.02 0.03 0.04 0.04 0.04 0.03 0.03 0.03 0.03 0.03 0.02 0.02 0.02 0.01 0.01 0.01 0.01 0.00 0.00 0.00 0.00 0.00 0.00 0.01 0.02 0.03 0.03 0.03 0.03 0.02
0.03 0.03 0.03 0.03 0.02 0.02 0.03 0.03 0.03 0.03 0.02 0.02 0.02 0.02 0.03 0.03 0.03 0.03 0.03 0.02 0.02 0.02 0.03 0.03 0.02 0.02 0.03 0.03 0.02 0.01 0.01 0.01 0.00 0.00 0.00 0.00 0.00 0.00 0.01 0.03 0.03 0.03 0.03
0.02 0.02 0.02 0.02 0.03 0.03 0.03 0.03 0.03 0.03 0.03 0.02 0.02 0.03 0.04 0.03 0.03 0.04 0.03 0.02 0.01 0.02 0.03 0.03 0.02 0.03 0.04 0.04 0.03 0.03 0.03 0.02 0.01 0.01 0.00 0.00 0.00 0.00 0.00 0.01 0.01 0.02 0.02
0.03 0.03 0.03 0.02 0.03 0.03 0.04 0.04 0.04 0.05 0.05 0.05 0.03 0.03 0.03 0.03 0.04 0.04 0.03 0.02 0.02 0.02 0.03 0.02 0.02 0.03 0.05 0.05 0.05 0.04 0.04 0.03 0.02 0.02 0.01 0.01 0.01 0.01 0.00 0.01 0.01 0.02 0.02
0.04 0.04 0.04 0.03 0.03 0.03 0.04 0.04 0.05 0.04 0.05 0.06 0.05 0.03 0.03 0.03 0.03 0.04 0.03 0.03 0.02 0.02 0.02 0.02 0.01 0.02 0.03 0.03 0.04 0.03 0.03 0.03 0.03 0.03 0.03 0.03 0.02 0.02 0.02 0.01 0.01 0.02 0.02
MSLP
1016.02 1016.10 1016.13 1016.13 1016.13 1016.16 1016.23 1016.35 1016.49 1016.65 1016.79 1016.89 1016.93 1016.91 1016.84 1016.75 1016.66 1016.61 1016.60 1016.66 1016.77 1016.92 1017.09 1017.27 1017.44 1017.60 1017.76 1017.91 1018.08 1018.27 1018.47 1018.70 1018.94 1019.18 1019.42 1019.64 1019.85 1020.04 1020.22 1020.39 1020.57 1020.73 1020.90
1015.80 1015.89 1015.94 1015.96 1015.99 1016.04 1016.13 1016.26 1016.42 1016.58 1016.74 1016.86 1016.92 1016.92 1016.88 1016.80 1016.72 1016.65 1016.62 1016.65 1016.72 1016.84 1016.99 1017.15 1017.32 1017.47 1017.63 1017.77 1017.93 1018.09 1018.27 1018.47 1018.69 1018.92 1019.15 1019.38 1019.61 1019.82 1020.02 1020.21 1020.39 1020.56 1020.73
1015.45 1015.58 1015.68 1015.77 1015.85 1015.95 1016.07 1016.22 1016.39 1016.57 1016.74 1016.87 1016.96 1017.00 1016.98 1016.93 1016.85 1016.78 1016.74 1016.73 1016.77 1016.86 1016.98 1017.12 1017.27 1017.42 1017.56 1017.70 1017.84 1017.98 1018.13 1018.30 1018.49 1018.69 1018.91 1019.14 1019.36 1019.58 1019.79 1019.99 1020.17 1020.35 1020.52
1015.01 1015.20 1015.38 1015.55 1015.72 1015.88 1016.05 1016.22 1016.41 1016.59 1016.76 1016.91 1017.03 1017.10 1017.11 1017.09 1017.04 1016.98 1016.93 1016.90 1016.91 1016.96 1017.06 1017.17 1017.31 1017.45 1017.58 1017.70 1017.82 1017.94 1018.06 1018.19 1018.35 1018.52 1018.71 1018.92 1019.13 1019.34 1019.55 1019.74 1019.92 1020.09 1020.26
1014.51 1014.77 1015.04 1015.31 1015.57 1015.80 1016.02 1016.22 1016.41 1016.59 1016.77 1016.93 1017.07 1017.17 1017.23 1017.26 1017.24 1017.20 1017.16 1017.12 1017.11 1017.14 1017.20 1017.30 1017.41 1017.54 1017.66 1017.77 1017.87 1017.97 1018.06 1018.16 1018.28 1018.42 1018.58 1018.76 1018.94 1019.13 1019.31 1019.49 1019.65 1019.80 1019.95
1013.99 1014.32 1014.68 1015.05 1015.38 1015.68 1015.94 1016.16 1016.35 1016.53 1016.71 1016.88 1017.04 1017.18 1017.30 1017.38 1017.41 1017.41 1017.39 1017.36 1017.35 1017.35 1017.39 1017.46 1017.56 1017.67 1017.79 1017.89 1017.98 1018.06 1018.13 1018.21 1018.30 1018.40 1018.52 1018.66 1018.81 1018.96 1019.11 1019.24 1019.37 1019.48 1019.60
1013.47 1013.86 1014.30 1014.73 1015.14 1015.49 1015.77 1016.00 1016.19 1016.36 1016.53 1016.72 1016.91 1017.11 1017.28 1017.43 1017.53 1017.58 1017.59 1017.58 1017.56 1017.56 1017.58 1017.63 1017.72 1017.82 1017.92 1018.02 1018.11 1018.19 1018.25 1018.31 1018.37 1018.45 1018.54 1018.64 1018.74 1018.85 1018.94 1019.02 1019.09 1019.14 1019.20
1012.98 1013.40 1013.88 1014.36 1014.80 1015.18 1015.48 1015.71 1015.89 1016.06 1016.24 1016.45 1016.68 1016.93 1017.18 1017.39 1017.56 1017.67 1017.72 1017.73 1017.72 1017.71 1017.72 1017.76 1017.83 1017.93 1018.03 1018.14 1018.23 1018.31 1018.38 1018.43 1018.49 1018.55 1018.61 1018.67 1018.73 1018.78 1018.81 1018.82 1018.80 1018.78 1018.77
1012.48 1012.92 1013.41 1013.91 1014.37 1014.76 1015.06 1015.29 1015.48 1015.65 1015.85 1016.08 1016.36 1016.66 1016.97 1017.26 1017.49 1017.65 1017.74 1017.78 1017.78 1017.77 1017.77 1017.81 1017.87 1017.96 1018.08 1018.19 1018.30 1018.40 1018.48 1018.55 1018.60 1018.66 1018.70 1018.74 1018.76 1018.75 1018.71 1018.63 1018.52 1018.40 1018.29
1011.97 1012.40 1012.89 1013.39 1013.84 1014.23 1014.53 1014.77 1014.96 1015.15 1015.38 1015.65 1015.97 1016.33 1016.69 1017.03 1017.31 1017.52 1017.64 1017.70 1017.71 1017.70 1017.71 1017.73 1017.80 1017.90 1018.02 1018.16 1018.29 1018.41 1018.51 1018.60 1018.67 1018.73 1018.78 1018.79 1018.78 1018.72 1018.60 1018.44 1018.23 1018.01 1017.79
1011.42 1011.84 1012.31 1012.79 1013.24 1013.62 1013.93 1014.18 1014.40 1014.62 1014.88 1015.19 1015.55 1015.95 1016.36 1016.73 1017.04 1017.27 1017.41 1017.48 1017.50 1017.50 1017.51 1017.55 1017.62 1017.73 1017.87 1018.02 1018.18 1018.32 1018.45 1018.56 1018.66 1018.73 1018.78 1018.80 1018.76 1018.66 1018.49 1018.25 1017.95 1017.61 1017.28
1010.82 1011.22 1011.68 1012.15 1012.60 1012.98 1013.30 1013.58 1013.83 1014.09 1014.38 1014.73 1015.13 1015.55 1015.98 1016.36 1016.68 1016.92 1017.07 1017.14 1017.17 1017.18 1017.21 1017.26 1017.35 1017.48 1017.64 1017.81 1017.98 1018.14 1018.29 1018.43 1018.54 1018.64 1018.70 1018.72 1018.68 1018.56 1018.35 1018.05 1017.67 1017.25 1016.81
1010.16 1010.57 1011.02 1011.49 1011.93 1012.33 1012.68 1012.99 1013.28 1013.58 1013.91 1014.29 1014.71 1015.14 1015.56 1015.94 1016.25 1016.48 1016.62 1016.71 1016.75 1016.78 1016.83 1016.91 1017.03 1017.19 1017.36 1017.55 1017.73 1017.90 1018.06 1018.20 1018.33 1018.44 1018.53 1018.56 1018.53 1018.41 1018.19 1017.86 1017.44 1016.95 1016.44
1009.47 1009.89 1010.36 1010.83 1011.29 1011.71 1012.09 1012.43 1012.77 1013.11 1013.47 1013.87 1014.29 1014.72 1015.12 1015.48 1015.76 1015.98 1016.12 1016.21 1016.28 1016.34 1016.43 1016.56 1016.71 1016.90 1017.09 1017.29 1017.47 1017.63 1017.78 1017.92 1018.06 1018.17 1018.27 1018.33 1018.32 1018.23 1018.02 1017.70 1017.27 1016.76 1016.21
1008.77 1009.22 1009.71 1010.20 1010.67 1011.12 1011.53 1011.92 1012.29 1012.67 1013.06 1013.47 1013.88 1014.28 1014.66 1014.98 1015.25 1015.44 1015.59 1015.70 1015.80 1015.92 1016.06 1016.23 1016.43 1016.65 1016.86 1017.05 1017.23 1017.37 1017.50 1017.62 1017.74 1017.86 1017.97 1018.05 1018.08 1018.03 1017.87 1017.59 1017.19 1016.70 1016.15
1008.10 1008.58 1009.09 1009.60 1010.10 1010.57 1011.02 1011.44 1011.84 1012.25 1012.65 1013.06 1013.46 1013.84 1014.18 1014.48 1014.72 1014.91 1015.07 1015.21 1015.36 1015.53 1015.73 1015.96 1016.20 1016.45 1016.67 1016.87 1017.02 1017.14 1017.24 1017.33 1017.43 1017.54 1017.66 1017.76 1017.83 1017.83 1017.73 1017.52 1017.19 1016.77 1016.27
1007.47 1007.98 1008.52 1009.05 1009.57 1010.07 1010.54 1010.98 1011.41 1011.83 1012.24 1012.64 1013.03 1013.39 1013.71 1013.98 1014.21 1014.40 1014.58 1014.76 1014.95 1015.18 1015.44 1015.73 1016.01 1016.29 1016.52 1016.71 1016.84 1016.93 1017.00 1017.05 1017.12 1017.22 1017.34 1017.46 1017.57 1017.63 1017.61 1017.48 1017.25 1016.91 1016.50
1006.87 1007.42 1007.98 1008.53 1009.07 1009.59 1010.08 1010.54 1010.99 1011.41 1011.83 1012.23 1012.60 1012.94 1013.24 1013.50 1013.73 1013.93 1014.13 1014.34 1014.58 1014.86 1015.17 1015.49 1015.82 1016.11 1016.35 1016.53 1016.65 1016.71 1016.75 1016.78 1016.83 1016.91 1017.03 1017.16 1017.30 1017.41 1017.46 1017.42 1017.29 1017.06 1016.75
1006.30 1006.88 1007.47 1008.05 1008.61 1009.14 1009.65 1010.12 1010.58 1011.01 1011.43 1011.82 1012.18 1012.51 1012.80 1013.06 1013.28 1013.49 1013.71 1013.95 1014.21 1014.52 1014.85 1015.20 1015.54 1015.84 1016.08 1016.26 1016.37 1016.43 1016.45 1016.47 1016.50 1016.58 1016.69 1016.84 1017.00 1017.15 1017.25 1017.28 1017.24 1017.12 1016.93
1005.74 1006.36 1006.98 1007.59 1008.18 1008.73 1009.25 1009.74 1010.20 1010.64 1011.05 1011.44 1011.80 1012.12 1012.40 1012.65 1012.87 1013.09 1013.30 1013.54 1013.81 1014.12 1014.45 1014.80 1015.13 1015.43 1015.67 1015.85 1015.96 1016.03 1016.06 1016.08 1016.12 1016.20 1016.32 1016.47 1016.63 1016.80 1016.93 1017.02 1017.05 1017.02 1016.94
1005.19 1005.86 1006.54 1007.19 1007.80 1008.38 1008.91 1009.42 1009.88 1010.32 1010.73 1011.12 1011.47 1011.78 1012.05 1012.29 1012.50 1012.69 1012.90 1013.12 1013.36 1013.64 1013.94 1014.26 1014.57 1014.85 1015.08 1015.27 1015.39 1015.48 1015.54 1015.59 1015.66 1015.75 1015.87 1016.02 1016.18 1016.35 1016.50 1016.61 1016.69 1016.73 1016.74
1004.70 1005.43 1006.16 1006.86 1007.51 1008.12 1008.67 1009.19 1009.66 1010.09 1010.50 1010.87 1011.20 1011.49 1011.75 1011.96 1012.15 1012.32 1012.48 1012.66 1012.86 1013.08 1013.33 1013.59 1013.85 1014.10 1014.33 1014.52 1014.67 1014.79 1014.90 1014.99 1015.09 1015.21 1015.34 1015.49 1015.64 1015.80 1015.94 1016.06 1016.16 1016.24 1016.32
1004.31 1005.12 1005.91 1006.66 1007.36 1007.99 1008.57 1009.08 1009.55 1009.97 1010.36 1010.70 1011.01 1011.27 1011.50 1011.69 1011.84 1011.96 1012.08 1012.20 1012.33 1012.48 1012.65 1012.85 1013.06 1013.27 1013.47 1013.66 1013.84 1014.00 1014.15 1014.29 1014.43 1014.58 1014.72 1014.87 1015.02 1015.15 1015.27 1015.39 1015.50 1015.61 1015.74
1004.13 1005.00 1005.85 1006.65 1007.38 1008.04 1008.62 1009.14 1009.58 1009.98 1010.33 1010.64 1010.90 1011.13 1011.31 1011.46 1011.57 1011.65 1011.71 1011.76 1011.83 1011.90 1012.00 1012.12 1012.27 1012.43 1012.61 1012.79 1012.97 1013.16 1013.34 1013.52 1013.70 1013.87 1014.03 1014.18 1014.31 1014.43 1014.54 1014.64 1014.76 1014.89 1015.06
1004.24 1005.16 1006.05 1006.88 1007.63 1008.29 1008.86 1009.35 1009.76 1010.11 1010.41 1010.66 1010.87 1011.05 1011.19 1011.29 1011.36 1011.40 1011.41 1011.41 1011.42 1011.43 1011.45 1011.51 1011.59 1011.69 1011.83 1011.98 1012.16 1012.34 1012.54 1012.74 1012.93 1013.11 1013.27 1013.42 1013.54 1013.65 1013.75 1013.85 1013.97 1014.13 1014.34
1004.69 1005.62 1006.52 1007.35 1008.09 1008.73 1009.27 1009.71 1010.07 1010.35 1010.58 1010.77 1010.92 1011.04 1011.14 1011.20 1011.23 1011.24 1011.22 1011.19 1011.15 1011.11 1011.08 1011.07 1011.08 1011.13 1011.20 1011.31 1011.44 1011.60 1011.77 1011.95 1012.13 1012.30 1012.45 1012.58 1012.70 1012.80 1012.90 1013.02 1013.16 1013.35 1013.60
Thickness
5763 5762 5761 5760 5759 5758 5756 5755 5754 5752 5751 5750 5749 5749 5747 5746 5745 5744 5744 5744 5744 5743 5742 5741 5739 5738 5737 5735 5733 5732 5730 5728 5727 5726 5724 5723 5721 5720 5718 5717 5715 5713 5711
5762 5760 5759 5758 5757 5756 5755 5753 5752 5750 5749 5748 5747 5747 5746 5745 5744 5743 5743 5742 5742 5741 5740 5739 5738 5737 5736 5734 5732 5730 5729 5728 5726 5725 5723 5722 5720 5718 5716 5715 5713 5711 5710
5761 5759 5758 5756 5755 5754 5753 5751 5749 5747 5747 5746 5745 5744 5744 5743 5742 5742 5741 5740 5739 5739 5738 5738 5737 5736 5735 5733 5731 5730 5728 5727 5726 5724 5722 5720 5719 5717 5715 5713 5711 5709 5708
5760 5758 5757 5755 5754 5752 5751 5748 5746 5744 5743 5742 5742 5741 5742 5741 5741 5740 5739 5738 5737 5737 5736 5736 5735 5734 5733 5732 5731 5729 5727 5726 5725 5723 5721 5719 5717 5715 5713 5711 5710 5708 5706
5759 5757 5755 5754 5752 5750 5749 5747 5745 5743 5740 5739 5739 5739 5739 5739 5738 5739 5738 5737 5735 5735 5734 5733 5733 5732 5731 5730 5729 5728 5727 5725 5723 5722 5720 5718 5716 5714 5712 5710 5708 5706 5704
5759 5757 5755 5753 5751 5749 5747 5745 5743 5741 5739 5737 5737 5736 5736 5736 5736 5736 5736 5735 5734 5733 5732 5731 5730 5729 5728 5728 5727 5726 5725 5724 5722 5720 5719 5716 5714 5712 5710 5708 5706 5704 5703
5759 5757 5755 5753 5751 5748 5746 5745 5743 5740 5737 5736 5733 5730 5732 5733 5733 5734 5733 5733 5733 5732 5731 5730 5728 5727 5727 5726 5725 5724 5723 5722 5720 5718 5716 5715 5713 5711 5709 5707 5704 5703 5702
5760 5758 5756 5753 5751 5748 5746 5744 5742 5738 5736 5735 5731 5726 5723 5725 5729 5732 5731 5731 5730 5730 5729 5728 5727 5726 5724 5723 5722 5722 5721 5719 5718 5716 5714 5713 5711 5709 5707 5704 5703 5702 5701
5760 5758 5756 5753 5751 5749 5746 5744 5742 5739 5735 5733 5732 5727 5721 5718 5721 5726 5728 5728 5727 5727 5726 5726 5725 5724 5723 5721 5720 5720 5718 5717 5715 5714 5712 5711 5708 5707 5705 5703 5701 5700 5699
5759 5758 5756 5754 5751 5749 5747 5745 5742 5740 5736 5732 5730 5729 5727 5724 5719 5718 5722 5724 5725 5724 5724 5724 5723 5722 5721 5720 5719 5717 5716 5714 5713 5711 5710 5708 5706 5705 5703 5701 5699 5698 5697
5759 5758 5756 5754 5752 5750 5748 5745 5742 5740 5737 5734 5730 5728 5725 5722 5721 5717 5715 5718 5720 5721 5722 5722 5721 5720 5719 5718 5716 5715 5713 5712 5710 5709 5707 5705 5704 5703 5701 5699 5697 5696 5695
5758 5758 5756 5754 5752 5750 5748 5745 5743 5740 5738 5735 5732 5729 5725 5722 5719 5717 5714 5715 5715 5718 5719 5719 5719 5718 5717 5715 5714 5712 5710 5709 5707 5705 5704 5702 5701 5700 5698 5696 5695 5694 5693
5757 5757 5756 5754 5752 5750 5748 5745 5742 5740 5738 5735 5732 5730 5727 5725 5723 5719 5716 5714 5712 5714 5715 5717 5717 5716 5715 5713 5711 5709 5707 5706 5704 5702 5700 5699 5698 5697 5695 5694 5692 5690 5689
5757 5757 5755 5754 5752 5749 5747 5744 5742 5739 5737 5734 5732 5730 5728 5727 5724 5722 5718 5713 5710 5710 5711 5712 5714 5713 5712 5711 5709 5707 5704 5703 5700 5698 5697 5695 5694 5693 5692 5690 5688 5687 5686
5757 5756 5754 5752 5750 5748 5746 5743 5740 5738 5735 5733 5731 5730 5728 5727 5725 5723 5720 5717 5712 5707 5707 5709 5710 5711 5709 5707 5706 5704 5702 5699 5697 5695 5693 5692 5690 5689 5687 5685 5684 5683 5682
5756 5754 5752 5750 5748 5746 5744 5741 5738 5737 5734 5732 5731 5728 5727 5726 5724 5722 5720 5717 5714 5710 5706 5708 5707 5707 5706 5704 5702 5700 5698 5696 5693 5691 5689 5688 5686 5684 5683 5682 5680 5678 5677
5753 5751 5750 5748 5746 5743 5741 5738 5736 5735 5733 5731 5729 5727 5725 5724 5721 5720 5717 5715 5712 5709 5705 5705 5704 5703 5701 5699 5697 5695 5693 5691 5689 5687 5685 5683 5682 5680 5679 5678 5676 5674 5673
5751 5749 5747 5744 5743 5741 5739 5736 5734 5732 5730 5727 5725 5724 5722 5721 5719 5717 5715 5712 5710 5707 5704 5701 5699 5697 5696 5694 5692 5690 5688 5687 5685 5683 5682 5680 5678 5677 5675 5674 5672 5670 5669
5747 5745 5743 5741 5740 5738 5736 5734 5732 5729 5727 5725 5723 5721 5719 5718 5716 5714 5712 5710 5707 5705 5701 5698 5695 5692 5690 5688 5685 5683 5682 5681 5680 5679 5677 5676 5674 5673 5671 5670 5668 5666 5665
5744 5741 5739 5738 5736 5734 5733 5731 5729 5726 5724 5722 5721 5719 5717 5715 5713 5711 5709 5706 5704 5700 5697 5693 5690 5687 5684 5682 5679 5677 5676 5675 5674 5674 5673 5672 5670 5669 5667 5666 5664 5663 5661
5741 5738 5735 5733 5732 5731 5729 5727 5725 5723 5720 5718 5717 5715 5714 5712 5710 5708 5706 5702 5700 5696 5692 5689 5685 5682 5679 5676 5675 5673 5671 5670 5669 5668 5667 5667 5666 5664 5663 5661 5660 5658 5657
5736 5734 5731 5729 5728 5727 5725 5723 5720 5718 5716 5713 5711 5710 5709 5707 5705 5703 5701 5699 5696 5692 5688 5685 5682 5678 5676 5674 5672 5669 5666 5664 5663 5664 5661 5662 5661 5660 5659 5658 5656 5654 5652
5731 5728 5726 5725 5723 5722 5720 5718 5716 5713 5710 5708 5706 5704 5704 5703 5700 5698 5696 5693 5690 5688 5686 5683 5679 5677 5674 5672 5669 5666 5663 5661 5660 5660 5656 5656 5656 5655 5656 5654 5653 5651 5649
5726 5723 5721 5719 5718 5717 5715 5713 5710 5708 5705 5703 5701 5699 5697 5695 5694 5691 5688 5686 5685 5683 5681 5679 5676 5674 5672 5670 5666 5663 5660 5657 5655 5653 5652 5651 5651 5651 5651 5650 5649 5647 5645
5720 5718 5716 5714 5712 5711 5710 5707 5704 5702 5699 5697 5695 5693 5691 5689 5687 5684 5681 5679 5678 5677 5676 5674 5672 5669 5667 5664 5661 5657 5653 5651 5650 5649 5647 5646 5647 5646 5645 5645 5644 5642 5640
5715 5712 5710 5709 5707 5705 5704 5701 5698 5696 5693 5691 5689 5687 5685 5683 5680 5677 5675 5673 5670 5670 5668 5667 5665 5663 5660 5658 5655 5652 5650 5646 5645 5644 5643 5641 5641 5639 5639 5640 5638 5636 5634